Location: York
(31.8935°S, 116.7682°E)
Time: 08:39:28
(UTC+08:00)

N. Korean satellite - Pass Details

Date: 20 May 2021
Orbit: 450 x 500 km, 97.2° (Epoch: 13 June)

Event Time Altitude Azimuth Distance (km) Brightness Sun altitude
Rises 18:05:19 0° 184° (S) 2,630 10.1 -9.6°
Reaches altitude 10° 18:07:39 10° 196° (SSW) 1,736 9.4 -10.1°
Maximum altitude 18:10:47 26° 253° (WSW) 1,032 8.9 -10.7°
Drops below altitude 10° 18:13:53 10° 310° (NW) 1,706 10.5 -11.3°
Sets 18:16:10 0° 323° (NW) 2,574 11.2 -11.8°
